Location: �terpigny
(49.8910°N, 2.9249°E)
Time: 17:21:36
(UTC+00:00)

Vanguard 2 - All Passes

Search period start: 26 May 2022 00:00
Search period end: 05 June 2022 00:00
Orbit: 552 x 2935 km, 32.9° (Epoch: 26 May)

Date Brightness Start Highest point End Pass type
(mag) Time Alt. Az. Time Alt. Az. Time Alt. Az.
26 May - 04:54:14 10° SSW 05:04:10 27° SSE 05:16:47 10° E daylight
26 May - 07:00:22 10° SW 07:13:30 41° S 07:29:16 10° ESE daylight
26 May - 09:09:20 10° WSW 09:23:59 40° SSW 09:39:13 10° SE daylight
26 May - 11:20:56 10° W 11:33:50 26° SW 11:45:47 10° SSE daylight
27 May - 03:09:24 10° SSE 03:13:13 12° SE 03:17:26 10° ESE visible
27 May - 05:10:23 10° SSW 05:20:48 31° SSE 05:34:22 10° E daylight
27 May - 07:17:12 10° WSW 07:30:25 42° S 07:46:19 10° ESE daylight
27 May - 09:26:33 10° WSW 09:40:53 37° SSW 09:55:45 10° SE daylight
27 May - 11:39:01 10° WSW 11:50:24 21° SW 12:01:07 10° S daylight
28 May - 03:23:23 10° S 03:29:33 16° SE 03:37:03 10° ESE daylight
28 May - 05:26:47 10° SW 05:37:32 34° SSE 05:51:45 10° ESE daylight
28 May - 07:34:09 10° WSW 07:47:23 42° S 08:03:15 10° ESE daylight
28 May - 09:43:54 10° WSW 09:57:44 34° SSW 10:12:03 10° SSE daylight
28 May - 11:57:45 10° WSW 12:06:54 17° SW 12:15:40 10° S daylight
29 May - 03:38:39 10° S 03:45:59 20° SE 03:55:25 10° ESE daylight
29 May - 05:43:22 10° SW 05:54:20 37° SSE 06:09:01 10° ESE daylight
29 May - 07:51:12 10° WSW 08:04:21 40° S 08:20:04 10° SE daylight
29 May - 10:01:26 10° WSW 10:14:31 29° SSW 10:28:03 10° SSE daylight
29 May - 12:18:10 10° WSW 12:23:20 12° SW 12:28:23 10° SSW daylight
30 May - 03:54:30 10° SSW 04:02:31 24° SSE 04:13:16 10° ESE daylight
30 May - 06:00:07 10° SW 06:11:12 39° S 06:26:09 10° ESE daylight
30 May - 08:08:21 10° WSW 08:21:18 38° SSW 08:36:42 10° SE daylight
30 May - 10:19:12 10° WSW 10:31:14 25° SSW 10:43:41 10° SSE daylight
31 May - 04:10:42 10° SSW 04:19:09 28° SSE 04:30:50 10° ESE daylight
31 May - 06:16:59 10° WSW 06:28:08 39° S 06:43:10 10° ESE daylight
31 May - 08:25:35 10° WSW 08:38:14 35° SSW 08:53:08 10° SE daylight
31 May - 10:37:24 10° WSW 10:47:53 20° SW 10:58:44 10° S daylight
01 Jun - 02:24:31 10° SSE 02:28:29 13° SE 02:33:09 10° ESE visible
01 Jun - 04:27:09 10° SW 04:35:52 31° SSE 04:48:13 10° ESE daylight
01 Jun - 06:33:57 10° WSW 06:45:06 39° S 07:00:04 10° ESE daylight
01 Jun - 08:42:59 10° WSW 08:55:08 31° SSW 09:09:18 10° SSE daylight
01 Jun - 10:56:25 10° WSW 11:04:30 15° SW 11:12:48 10° SSW daylight
02 Jun - 02:39:36 10° S 02:44:56 17° SE 02:51:45 10° ESE visible
02 Jun - 04:43:47 10° SW 04:52:40 33° SSE 05:05:27 10° ESE daylight
02 Jun - 06:51:01 10° WSW 07:02:04 37° S 07:16:49 10° SE daylight
02 Jun - 09:00:34 10° WSW 09:11:58 27° SSW 09:25:08 10° SSE daylight
02 Jun - 11:18:22 10° SW 11:21:03 10° SW 11:23:46 10° SW daylight
03 Jun - 02:55:26 10° S 03:01:30 21° SSE 03:09:40 10° ESE visible
03 Jun - 05:00:34 10° SW 05:09:33 35° S 05:22:34 10° ESE daylight
03 Jun - 07:08:11 10° WSW 07:19:02 34° S 07:33:22 10° SE daylight
03 Jun - 09:18:28 10° WSW 09:28:47 22° SSW 09:40:29 10° S daylight
04 Jun - 03:11:39 10° SSW 03:18:08 24° SSE 03:27:16 10° ESE daylight
04 Jun - 05:17:27 10° SW 05:26:28 35° S 05:39:32 10° ESE daylight
04 Jun - 07:25:29 10° WSW 07:36:00 31° SSW 07:49:41 10° SE daylight
04 Jun - 09:36:56 10° WSW 09:45:33 17° SW 09:55:07 10° S daylight
